Location: Fontevrault
(47.1823°N, 0.0493°E)
Time: 04:47:38
(UTC+00:00)

Uosat 12 SS-18 rocket - Pass Details

Date: 29 October 2021
Orbit: 579 x 1405 km, 64.6° (Epoch: 01 December)

Event Time Altitude Azimuth Distance (km) Brightness Sun altitude
Rises 19:33:11 0° 312° (NW) 3,613 8.8 -28.6°
Reaches altitude 10° 19:36:19 10° 329° (NNW) 2,815 7.9 -29.1°
Maximum altitude 19:41:18 21° 16° (NNE) 2,316 6.9 -29.9°
Enters shadow 19:42:02 21° 24° (NNE) 2,358 6.8 -30.0°
